OpenBCM V1.13 (Linux)

Packet Radio Mailbox

DB0FHN

[JN59NK Nuernberg]

 Login: GUEST





  
UA9FBV > KEPS     24.12.04 08:25l 165 Lines 7769 Bytes #999 (0) @ AMSAT
BID : ORB04358.N
Read: GUEST DL7NDR
Subj: 2Line Orbital Elements 04358.AMSAT
Path: DB0FHN<DB0FOR<DB0SIF<DB0EA<DB0RES<OK0PPL<RZ6HXA<UA6EM<UA9FBV
Sent: 041224/0612Z @:UA9FBV.PRM.RUS.AS #:13741 [Perm] GATEWAY $:ORB04358.N
From: UA9FBV@UA9FBV.PRM.RUS.AS
To  : KEPS@AMSAT


HR AMSAT ORBITAL ELEMENTS FOR AMATEUR SATELLITES IN NASA FORMAT
FROM WA5QGD FORT WORTH,TX December 23, 2004
SEND SUBSCRIBE/UNSUBSCRIBE TO majordomo@amsat.org ONLY
BID: ORB04358.N

DECODE 2-LINE ELSETS WITH THE FOLLOWING KEY:
1 AAAAAU 00  0  0 BBBBB.BBBBBBBB  .CCCCCCCC  00000-0  00000-0 0  DDDZ
2 AAAAA EEE.EEEE FFF.FFFF GGGGGGG HHH.HHHH III.IIII JJ.JJJJJJJJKKKKKZ
KEY: A-CATALOGNUM B-EPOCHTIME C-DECAY D-ELSETNUM E-INCLINATION F-RAAN
G-ECCENTRICITY H-ARGPERIGEE I-MNANOM J-MNMOTION K-ORBITNUM Z-CHECKSUM

TO ALL RADIO AMATEURS BT

AO-07
1 07530U 74089B   04357.69996212 -.00000028  00000-0  10000-3 0  3636
2 07530 101.6541  41.2926 0012194 215.7506 144.2750 12.53570019377533
AO-10
1 14129U 83058B   04357.52009690 -.00000032  00000-0  10000-3 0 01331
2 14129 026.9049 055.4239 6032910 150.8982 263.3325 02.05868630161898
UO-11
1 14781U 84021B   04357.85713526  .00000021  00000-0  10293-4 0  6676
2 14781  98.1913 345.9904 0008842 199.4847 160.6004 14.79108503115734
RS-10/11
1 18129U 87054A   04358.07412683  .00000014  00000-0 -99441-6 0  5700
2 18129  82.9249   8.4064 0012436 148.8859 211.3042 13.72750579876918
FO-20
1 20480U 90013C   04357.65115097 -.00000058  00000-0 -50080-4 0  7754
2 20480  99.0167 199.4379 0539813 279.8584  74.2015 12.83343658696858
RS-12/13
1 21089U 91007A   04358.21788559  .00000019  00000-0  37836-5 0  7947
2 21089  82.9242  41.4857 0028615 206.4760 153.4918 13.74445132696326
RS-15
1 23439U 94085A   04357.55331060 -.00000039  00000-0  10597-3 0 08402
2 23439 064.8212 033.2125 0158794 347.4080 012.2899 11.27550506411472
FO-29
1 24278U 96046B   04358.27138909 -.00000061  00000-0 -22559-4 0  8543
2 24278  98.5735  65.3810 0349674 272.0310  84.0818 13.52906143412407
SO-33
1 25509U 98061B   04357.31255886  .00000367  00000-0  63379-4 0 02634
2 25509 031.4301 312.3081 0355193 060.1479 303.3958 14.27945255321524
AO-40
1 26609U 00072B   04358.15860515 -.00000191  00000-0  10000-3 0  4747
2 26609   9.0368 328.9528 7959080 350.4630   0.3286  1.25585970 19042
UO-14
1 20437U 90005B   04358.04060916  .00000035  00000-0  28320-4 0  6697
2 20437  98.1995  11.5756 0011053   4.1172 356.0094 14.31389354778830
AO-16
1 20439U 90005D   04357.65809890 -.00000008  00000-0  12227-4 0  3560
2 20439  98.2257  26.1914 0011464  12.0407 348.1048 14.31649113778830
WO-18
1 20441U 90005F   04357.67192611  .00000045  00000-0  32051-4 0  5470
2 20441  98.2393  30.3908 0012118  13.0027 347.1465 14.31724396778895
LO-19
1 20442U 90005G   04357.71111391  .00000040  00000-0  30217-4 0  2836
2 20442  98.2477  34.6566 0012279  11.4657 348.6798 14.31896425778961
UO-22
1 21575U 91050B   04357.85516565  .00000102  00000-0  46080-4 0 02869
2 21575 098.2195 324.0837 0006399 259.6206 100.4253 14.39447116705131
KO-23
1 22077U 92052B   04358.36605652 -.00000037  00000-0  10000-3 0  3460
2 22077  66.0861 154.6633 0013188 297.5966  62.3713 12.86427951580976
AO-27
1 22825U 93061C   04358.04208548  .00000045  00000-0  33663-4 0   208
2 22825  98.2439 356.9405 0009290  69.3541 290.8644 14.29104838586064
IO-26
1 22826U 93061D   04358.03320690  .00000036  00000-0  30077-4 0  6887
2 22826  98.2407 358.2213 0010013  64.8827 295.3393 14.29343090586127
KO-25
1 22828U 93061F   04358.06921689  .00000021  00000-0  24115-4 0  9521
2 22828  98.2349 358.4809 0010729  44.4430 315.7620 14.29660023554353
TO-31
1 25396U 98043C   04357.79316453 -.00000043  00000-0  00000 0 0  1333
2 25396  98.5541  64.1496 0002184 357.7262   2.3924 14.23650173335313
GO-32
1 25397U 98043D   04357.87482619  .00000072  00000-0  50732-4 0  6328
2 25397  98.5449  62.0765 0001301  33.7059 326.4193 14.23064115335258
UO-36
1 25693U 99021A   04358.20235256  .00000065  00000-0  28428-4 0  7594
2 25693  64.5594 104.1463 0040955 233.9274 125.8034 14.78439892305806
SO-41
1 26545U 00057A   04357.68805834  .00000208  00000-0  46233-4 0 09582
2 26545 064.5570 121.3087 0031169 335.7943 024.1666 14.79965950228818
MO-46
1 26548U 00057D   04357.67226230  .00000259  00000-0  50221-4 0 00614
2 26548 064.5563 106.1642 0030091 323.4071 036.4967 14.82551326229127
SO-42
1 26549U 00057E   04358.35606065  .00000189  00000-0  44790-4 0   176
2 26549  64.5542 126.9226 0031434 344.3311  15.6817 14.78852761228757
NO-44
1 26931U 01043C   04357.85003416  .00000184  00000-0  10471-3 0  9297
2 26931  67.0551 321.9402 0007383 267.5447  92.4822 14.29350297168569
AO-49
1 27605U 02058A   04358.10469954  .00000099  00000-0  36819-4 0  6179
2 27605  64.5589 310.6789 0085656 274.5038  84.6268 14.72004665107931
SO-50
1 27607U 02058C   04358.35393814  .00000385  00000-0  81523-4 0  5998
2 27607  64.5589 314.5894 0086586 273.3821  85.7374 14.70836274107873
AO-51
1 28375U 04025K   04357.76021304 -.00000002  00000-0  12599-4 0  1397
2 28375  98.2394  61.0939 0085178  44.1784 316.6158 14.40420745 25218
NOAA-10
1 16969U 86073A   04359.06608978 -.00000051  00000-0 -23185-5 0  5291
2 16969  98.7621 358.4334 0011571 283.9659  76.0308 14.27231634950116
NOAA-11
1 19531U 88089A   04358.40569139 -.00000175  00000-0 -67892-4 0  3859
2 19531  98.8574  80.9582 0012478  89.2110 271.0486 14.14743821838076
NOAA-12
1 21263U 91032A   04359.04767203  .00000047  00000-0  38592-4 0  8776
2 21263  98.6869 344.9165 0012319 215.2576 144.7921 14.25439051707295
MET-3/5
1 21655U 91056A   04358.38296842  .00000051  00000-0  10000-3 0  7002
2 21655  82.5549 282.8464 0012664 317.9099  42.1097 13.16997676642173
MET-2/21
1 22782U 93055A   04357.52810116  .00000086  00000-0  64767-4 0   861
2 22782  82.5505  41.1228 0021003 257.8116 102.0704 13.83577454571141
OKEAN-4
1 23317U 94066A   04358.20749662  .00000410  00000-0  48537-4 0  5045
2 23317  82.5404  61.4586 0022595   0.5313 359.5927 14.82009537549845
NOAA-14
1 23455U 94089A   04358.32195781  .00000173  00000-0  11622-3 0  4086
2 23455  99.1180  37.5649 0010182 134.3917 225.8105 14.13520942514658
SICH-1
1 23657U 95046A   04358.17753648  .00000384  00000-0  46331-4 0  3077
2 23657  82.5300 202.3001 0023986 345.1475  14.9050 14.81031764501907
NOAA-15
1 25338U 98030A   04358.11832127  .00000054  00000-0  41720-4 0  8521
2 25338  98.5168   5.7963 0011121 148.8059 211.3799 14.24476428343689
RESURS
1 25394U 98043A   04358.62728282  .00000026  00000-0  29974-4 0  9773
2 25394  98.5623  66.6559 0000904 345.4393  14.6760 14.24042162335460
FENGYUN1
1 25730U 99025A   04357.87752350 -.00000168  00000-0 -68927-4 0  3074
2 25730  98.6050   0.7409 0013673 240.8201 119.1606 14.11784042289638
OKEAN-0
1 25860U 99039A   04358.18618113  .00000152  00000-0  30865-4 0  3112
2 25860  97.7774  25.6514 0002031  83.1834 276.9615 14.73173583292090
NOAA-16
1 26536U 00055A   04358.15702050  .00000140  00000-0  10086-3 0  1582
2 26536  98.9898 309.8226 0010289 200.4577 159.6166 14.12189191219216
NOAA-17
1 27453U 02032A   04358.23224260  .00000182  00000-0  98844-4 0  1809
2 27453  98.6833  68.2605 0011749 201.4464 158.6265 14.23611415129801
HUBBLE
1 20580U 90037B   04357.36214735  .00000877  00000-0  56610-4 0  2339
2 20580  28.4692 340.7535 0003810 190.1448 169.9044 14.99502593603676
UARS
1 21701U 91063B   04357.69956064  .00000052  00000-0  22462-4 0  3377
2 21701  56.9788 185.4210 0005669  89.0758 271.1145 15.03714738726948
PO-34
1 25520U 98064B   04357.37189055  .00000975  00000-0  39584-4 0   768
2 25520  28.4605  54.1678 0005357 105.0588 255.0582 15.15986308339726
ISS
1 25544U 98067A   04359.01157407  .00021364  00000-0  16603-3 0  4299
2 25544  51.6388  76.7040 0004277 134.6982 220.7256 15.71713119348139
OO-38
1 26063U 00004C   04358.09006682  .00000046  00000-0  36186-4 0  2410
2 26063 100.2239 179.7305 0036768 190.2723 169.7711 14.35690993257029
NO-45
1 26932U 01043D   04357.69204419  .00000310  00000-0  15340-3 0 09231
2 26932 067.0586 321.9959 0008068 280.0159 080.0059 14.29463344168570


Read previous mail | Read next mail


 15.09.2026 10:09:40lGo back Go up